User: anonymous   Login
Location: Johnson City
(36.3130°N, 82.3540°W)
Time: 14:36:53
(UTC-04:00)
Language:

Envisat - Orbit

View from above orbital plane
View from above orbital plane
View from above satellite
View from above satellite

Ground track
Ground track

The orbit data is extracted from the following two-line orbital elements,

1 27386U 02009A   19111.57579260  .00000002  00000-0  14078-4 0  9997
2 27386  98.1543 135.5593 0001419  89.8535  21.5256 14.37946493897849
Epoch (UTC): 21 April 2019 13:49:08
Eccentricity: 0.0001419
inclination: 98.1543°
perigee height: 764 km
apogee height: 766 km
right ascension of ascending node: 135.5593°
argument of perigee: 89.8535°
revolutions per day: 14.37946493
mean anomaly at epoch: 21.5256°
orbit number at epoch: 89784

The dashed part of the orbit path shows where the satellite is in the earth's shadow,  

DLR